User: anonymous   Login
Location: Altoona
(40.5167°N, 78.4000°W)
Time: 07:51:00
(UTC-04:00)
Language:

SL-16 R/B - Orbit

View from above orbital plane
View from above orbital plane
View from above satellite
View from above satellite

Ground track
Ground track

The orbit data is extracted from the following two-line orbital elements,

1 31793U 07029B   18265.60313348 +.00000039 +00000-0 +45284-4 0  9990
2 31793 070.9757 137.8352 0002175 264.3626 119.0999 14.14409961580069
Epoch (UTC): 22 September 2018 14:28:30
Eccentricity: 0.0002175
inclination: 70.9757°
perigee height: 843 km
apogee height: 846 km
right ascension of ascending node: 137.8352°
argument of perigee: 264.3626°
revolutions per day: 14.14409961
mean anomaly at epoch: 119.0999°
orbit number at epoch: 58006

The dashed part of the orbit path shows where the satellite is in the earth's shadow,  

DLR